Location: *
(47.8307°S, 178.3954°E)
Time: 06:29:51
(UTC+00:00)

CZ-2D R/B - Pass Details

Date: 12 August 2024
Orbit: 538 x 611 km, 98.0° (Epoch: 18 September)

Event Time Altitude Azimuth Distance (km) Brightness Sun altitude
Rises 16:26:02 0° 28° (NNE) 2,881 7.2 -28.4°
Reaches altitude 10° 16:28:15 10° 33° (NNE) 1,980 6.4 -28.0°
Maximum altitude 16:32:27 53° 109° (ESE) 762 4.2 -27.3°
Enters shadow 16:33:28 42° 154° (SSE) 881 4.5 -27.2°
